| time (UTC) | temp F | wind direction | speed MPH | gust MPH | rain 1hr in | rain 24hr in | rain mn in | humidity % | barometer mb |
| 20260507201405 | 60 | 109 | 0.0 | 5.0 | 0.00 | 0.00 | 0.00 | 67 | 1011.2 |
| 20260507200905 | 60 | 62 | 1.0 | 6.0 | 0.00 | 0.00 | 0.00 | 67 | 1011.1 |
| 20260507194904 | 60 | 101 | 0.0 | 6.0 | 0.00 | 0.00 | 0.00 | 65 | 1011.0 |
| 20260507193904 | 61 | 102 | 1.0 | 6.0 | 0.00 | 0.00 | 0.00 | 65 | 1010.9 |
| 20260507192905 | 61 | 49 | 0.0 | 8.0 | 0.00 | 0.00 | 0.00 | 64 | 1010.9 |
| 20260507192405 | 61 | 118 | 3.0 | 12.0 | 0.00 | 0.00 | 0.00 | 64 | 1010.9 |
| 20260507191406 | 61 | 117 | 3.0 | 9.0 | 0.00 | 0.00 | 0.00 | 63 | 1010.7 |
| 20260507190906 | 62 | 99 | 3.0 | 10.0 | 0.00 | 0.00 | 0.00 | 63 | 1010.6 |
| 20260507185906 | 62 | 165 | 3.0 | 9.0 | 0.00 | 0.00 | 0.00 | 62 | 1010.6 |
| 20260507185406 | 62 | 84 | 2.0 | 12.0 | 0.00 | 0.00 | 0.00 | 62 | 1010.6 |
| 20260507184905 | 63 | 141 | 4.0 | 18.0 | 0.00 | 0.00 | 0.00 | 61 | 1010.5 |
| 20260507184405 | 63 | 60 | 2.0 | 9.0 | 0.00 | 0.00 | 0.00 | 61 | 1010.3 |
| 20260507183406 | 64 | 144 | 4.0 | 14.0 | 0.00 | 0.00 | 0.00 | 61 | 1010.1 |
| 20260507182905 | 64 | 102 | 5.0 | 15.0 | 0.00 | 0.00 | 0.00 | 61 | 1010.0 |
| 20260507182405 | 64 | 110 | 5.0 | 13.0 | 0.00 | 0.00 | 0.00 | 60 | 1010.0 |
| 20260507181905 | 65 | 122 | 5.0 | 13.0 | 0.00 | 0.00 | 0.00 | 59 | 1009.9 |
| 20260507181405 | 65 | 78 | 2.0 | 15.0 | 0.00 | 0.00 | 0.00 | 59 | 1009.7 |
| 20260507180905 | 65 | 220 | 3.0 | 12.0 | 0.00 | 0.00 | 0.00 | 58 | 1009.7 |
| 20260507180406 | 66 | 91 | 2.0 | 9.0 | 0.00 | 0.00 | 0.00 | 58 | 1009.6 |
| 20260507175905 | 66 | 148 | 4.0 | 13.0 | 0.00 | 0.00 | 0.00 | 57 | 1009.5 |
| 20260507175405 | 67 | 71 | 1.0 | 12.0 | 0.00 | 0.00 | 0.00 | 56 | 1009.6 |
| 20260507174405 | 67 | 70 | 6.0 | 13.0 | 0.00 | 0.00 | 0.00 | 55 | 1009.5 |
| 20260507173906 | 68 | 101 | 2.0 | 10.0 | 0.00 | 0.00 | 0.00 | 54 | 1009.5 |
| 20260507173406 | 68 | 156 | 2.0 | 12.0 | 0.00 | 0.00 | 0.00 | 54 | 1009.4 |
| 20260507172905 | 69 | 123 | 6.0 | 14.0 | 0.00 | 0.00 | 0.00 | 53 | 1009.4 |
| 20260507172405 | 69 | 69 | 1.0 | 12.0 | 0.00 | 0.00 | 0.00 | 52 | 1009.4 |
| 20260507171906 | 70 | 134 | 2.0 | 12.0 | 0.00 | 0.00 | 0.00 | 51 | 1009.3 |
| 20260507171405 | 70 | 100 | 7.0 | 13.0 | 0.00 | 0.00 | 0.00 | 50 | 1009.3 |
| 20260507170906 | 70 | 146 | 6.0 | 13.0 | 0.00 | 0.00 | 0.00 | 49 | 1009.3 |
| 20260507170405 | 70 | 102 | 2.0 | 13.0 | 0.00 | 0.00 | 0.00 | 48 | 1009.2 |
| 20260507165905 | 70 | 91 | 6.0 | 12.0 | 0.00 | 0.00 | 0.00 | 47 | 1009.2 |
| 20260507163905 | 70 | 89 | 3.0 | 10.0 | 0.00 | 0.00 | 0.00 | 48 | 1009.2 |
| 20260507163405 | 70 | 92 | 2.0 | 9.0 | 0.00 | 0.00 | 0.00 | 47 | 1009.2 |
| 20260507162905 | 71 | 96 | 3.0 | 15.0 | 0.00 | 0.00 | 0.00 | 45 | 1009.2 |
| 20260507162405 | 72 | 110 | 5.0 | 13.0 | 0.00 | 0.00 | 0.00 | 42 | 1009.2 |
| 20260507161905 | 72 | 93 | 2.0 | 10.0 | 0.00 | 0.00 | 0.00 | 43 | 1009.2 |
| 20260507161405 | 71 | 101 | 1.0 | 5.0 | 0.00 | 0.00 | 0.00 | 43 | 1009.1 |
| 20260507160905 | 71 | 126 | 5.0 | 10.0 | 0.00 | 0.00 | 0.00 | 42 | 1009.1 |
| 20260507160405 | 72 | 58 | 5.0 | 13.0 | 0.00 | 0.00 | 0.00 | 42 | 1009.3 |
| 20260507155905 | 72 | 155 | 6.0 | 13.0 | 0.00 | 0.00 | 0.00 | 41 | 1009.3 |
| 20260507155405 | 72 | 66 | 7.0 | 13.0 | 0.00 | 0.00 | 0.00 | 42 | 1009.3 |
| 20260507154906 | 72 | 144 | 4.0 | 13.0 | 0.00 | 0.00 | 0.00 | 40 | 1009.5 |
| 20260507154407 | 72 | 123 | 7.0 | 13.0 | 0.00 | 0.00 | 0.00 | 41 | 1009.5 |
| 20260507153905 | 72 | 126 | 1.0 | 6.0 | 0.00 | 0.00 | 0.00 | 42 | 1009.5 |
| 20260507153405 | 72 | 101 | 4.0 | 12.0 | 0.00 | 0.00 | 0.00 | 40 | 1009.6 |
| 20260507152405 | 72 | 75 | 1.0 | 12.0 | 0.00 | 0.00 | 0.00 | 41 | 1009.6 |
| 20260507150905 | 71 | 127 | 2.0 | 10.0 | 0.00 | 0.00 | 0.00 | 43 | 1009.6 |
| 20260507145405 | 72 | 112 | 2.0 | 12.0 | 0.00 | 0.00 | 0.00 | 43 | 1009.9 |
| 20260507144905 | 71 | 41 | 3.0 | 12.0 | 0.00 | 0.00 | 0.00 | 44 | 1009.9 |
| 20260507144405 | 70 | 96 | 3.0 | 12.0 | 0.00 | 0.00 | 0.00 | 44 | 1010.1 |
| 20260507143905 | 71 | 89 | 2.0 | 14.0 | 0.00 | 0.00 | 0.00 | 43 | 1010.2 |
| 20260507143405 | 71 | 81 | 4.0 | 12.0 | 0.00 | 0.00 | 0.00 | 44 | 1010.3 |
| 20260507142905 | 71 | 80 | 4.0 | 12.0 | 0.00 | 0.00 | 0.00 | 42 | 1010.3 |
| 20260507142404 | 72 | 80 | 2.0 | 13.0 | 0.00 | 0.00 | 0.00 | 42 | 1010.3 |
| 20260507141905 | 72 | 64 | 4.0 | 12.0 | 0.00 | 0.00 | 0.00 | 42 | 1010.4 |
| 20260507141405 | 71 | 55 | 1.0 | 12.0 | 0.00 | 0.00 | 0.00 | 44 | 1010.4 |
| 20260507140905 | 72 | 154 | 0.0 | 6.0 | 0.00 | 0.00 | 0.00 | 42 | 1010.4 |
| 20260507140406 | 72 | 111 | 1.0 | 7.0 | 0.00 | 0.00 | 0.00 | 44 | 1010.4 |
| 20260507135906 | 71 | 92 | 2.0 | 9.0 | 0.00 | 0.00 | 0.00 | 44 | 1010.4 |
| 20260507135405 | 71 | 78 | 1.0 | 5.0 | 0.00 | 0.00 | 0.00 | 42 | 1010.4 |
| 20260507134905 | 73 | 54 | 5.0 | 13.0 | 0.00 | 0.00 | 0.00 | 41 | 1010.4 |
| 20260507134405 | 73 | 38 | 2.0 | 10.0 | 0.00 | 0.00 | 0.00 | 42 | 1010.4 |
| 20260507133405 | 72 | 93 | 1.0 | 5.0 | 0.00 | 0.00 | 0.00 | 42 | 1010.4 |
| 20260507132905 | 72 | 118 | 3.0 | 14.0 | 0.00 | 0.00 | 0.00 | 42 | 1010.6 |
| 20260507132405 | 71 | 52 | 3.0 | 13.0 | 0.00 | 0.00 | 0.00 | 44 | 1010.5 |
| 20260507131906 | 71 | 114 | 5.0 | 9.0 | 0.00 | 0.00 | 0.00 | 44 | 1010.5 |
| 20260507130905 | 71 | 91 | 0.0 | 8.0 | 0.00 | 0.00 | 0.00 | 45 | 1010.6 |
| 20260507130405 | 70 | 108 | 6.0 | 12.0 | 0.00 | 0.00 | 0.00 | 46 | 1010.8 |
| 20260507125905 | 70 | 89 | 5.0 | 12.0 | 0.00 | 0.00 | 0.00 | 45 | 1010.8 |
| 20260507125404 | 71 | 83 | 3.0 | 14.0 | 0.00 | 0.00 | 0.00 | 44 | 1010.8 |
| 20260507124905 | 71 | 117 | 4.0 | 10.0 | 0.00 | 0.00 | 0.00 | 44 | 1010.9 |
| 20260507124405 | 70 | 87 | 2.0 | 6.0 | 0.00 | 0.00 | 0.00 | 46 | 1010.8 |
| 20260507123405 | 71 | 111 | 6.0 | 12.0 | 0.00 | 0.00 | 0.00 | 45 | 1010.9 |
| 20260507122405 | 69 | 11 | 6.0 | 12.0 | 0.00 | 0.00 | 0.00 | 46 | 1011.1 |
| 20260507121905 | 70 | 22 | 4.0 | 10.0 | 0.00 | 0.00 | 0.00 | 46 | 1011.2 |
| 20260507121405 | 70 | 28 | 2.0 | 14.0 | 0.00 | 0.00 | 0.00 | 44 | 1011.3 |
| 20260507120904 | 71 | 147 | 4.0 | 15.0 | 0.00 | 0.00 | 0.00 | 44 | 1011.4 |
| 20260507120405 | 71 | 160 | 3.0 | 12.0 | 0.00 | 0.00 | 0.00 | 44 | 1011.5 |
| 20260507115905 | 71 | 104 | 3.0 | 12.0 | 0.00 | 0.00 | 0.00 | 44 | 1011.4 |
| 20260507115405 | 70 | 0 | 2.0 | 9.0 | 0.00 | 0.00 | 0.00 | 43 | 1011.5 |
| 20260507114905 | 70 | 119 | 3.0 | 10.0 | 0.00 | 0.00 | 0.00 | 45 | 1011.6 |
| 20260507114404 | 70 | 231 | 1.0 | 8.0 | 0.00 | 0.00 | 0.00 | 45 | 1011.6 |
| 20260507113905 | 70 | 124 | 0.0 | 10.0 | 0.00 | 0.00 | 0.00 | 47 | 1011.7 |
| 20260507112905 | 68 | 63 | 1.0 | 7.0 | 0.00 | 0.00 | 0.00 | 48 | 1011.6 |
| 20260507112405 | 69 | 98 | 5.0 | 12.0 | 0.00 | 0.00 | 0.00 | 48 | 1011.6 |
| 20260507111905 | 69 | 328 | 0.0 | 5.0 | 0.00 | 0.00 | 0.00 | 50 | 1011.6 |
| 20260507111405 | 68 | 98 | 0.0 | 7.0 | 0.00 | 0.00 | 0.00 | 53 | 1011.7 |
| 20260507110905 | 69 | 132 | 2.0 | 10.0 | 0.00 | 0.00 | 0.00 | 52 | 1011.7 |
| 20260507105905 | 69 | 75 | 0.0 | 10.0 | 0.00 | 0.00 | 0.00 | 50 | 1011.7 |
| 20260507105405 | 69 | 98 | 2.0 | 9.0 | 0.00 | 0.00 | 0.00 | 52 | 1011.7 |
| 20260507104905 | 69 | 135 | 4.0 | 10.0 | 0.00 | 0.00 | 0.00 | 52 | 1011.7 |
| 20260507104405 | 69 | 180 | 3.0 | 12.0 | 0.00 | 0.00 | 0.00 | 53 | 1011.7 |
| 20260507103905 | 69 | 75 | 0.0 | 9.0 | 0.00 | 0.00 | 0.00 | 53 | 1011.6 |
| 20260507103405 | 68 | 100 | 3.0 | 7.0 | 0.00 | 0.00 | 0.00 | 54 | 1011.6 |
| 20260507102905 | 67 | 127 | 2.0 | 13.0 | 0.00 | 0.00 | 0.00 | 54 | 1011.6 |
| 20260507102405 | 67 | 95 | 2.0 | 13.0 | 0.00 | 0.00 | 0.00 | 56 | 1011.6 |
| 20260507101405 | 67 | 157 | 5.0 | 13.0 | 0.00 | 0.00 | 0.00 | 56 | 1011.6 |
| 20260507100904 | 68 | 130 | 1.0 | 12.0 | 0.00 | 0.00 | 0.00 | 57 | 1011.6 |
| 20260507100405 | 68 | 97 | 3.0 | 8.0 | 0.00 | 0.00 | 0.00 | 58 | 1011.6 |
| 20260507095905 | 67 | 88 | 3.0 | 12.0 | 0.00 | 0.00 | 0.00 | 60 | 1011.6 |
| 20260507095405 | 67 | 129 | 1.0 | 12.0 | 0.00 | 0.00 | 0.00 | 61 | 1011.6 |
| 20260507094905 | 66 | 49 | 1.0 | 7.0 | 0.00 | 0.00 | 0.00 | 63 | 1011.5 |
| 20260507094405 | 66 | 145 | 2.0 | 10.0 | 0.00 | 0.00 | 0.00 | 63 | 1011.5 |
| 20260507093904 | 66 | 145 | 1.0 | 10.0 | 0.00 | 0.00 | 0.00 | 63 | 1011.5 |
| 20260507093405 | 66 | 96 | 2.0 | 8.0 | 0.00 | 0.00 | 0.00 | 64 | 1011.5 |
| 20260507092905 | 65 | 137 | 1.0 | 10.0 | 0.00 | 0.00 | 0.00 | 65 | 1011.5 |
| 20260507092405 | 64 | 279 | 0.0 | 7.0 | 0.00 | 0.00 | 0.00 | 68 | 1011.4 |
| 20260507091905 | 64 | 134 | 2.0 | 10.0 | 0.00 | 0.00 | 0.00 | 69 | 1011.5 |
| 20260507091405 | 64 | 135 | 2.0 | 5.0 | 0.00 | 0.00 | 0.00 | 70 | 1011.4 |
| 20260507090905 | 63 | 133 | 5.0 | 12.0 | 0.00 | 0.00 | 0.00 | 72 | 1011.5 |
| 20260507090405 | 62 | 119 | 0.0 | 12.0 | 0.00 | 0.00 | 0.00 | 73 | 1011.4 |
| 20260507085405 | 62 | 105 | 2.0 | 10.0 | 0.00 | 0.00 | 0.00 | 75 | 1011.5 |
| 20260507084404 | 61 | 128 | 1.0 | 8.0 | 0.00 | 0.00 | 0.00 | 76 | 1011.5 |
| 20260507083905 | 61 | 157 | 1.0 | 8.0 | 0.00 | 0.00 | 0.00 | 78 | 1011.5 |
| 20260507082905 | 60 | 152 | 3.0 | 10.0 | 0.00 | 0.00 | 0.00 | 79 | 1011.6 |
| 20260507082405 | 60 | 142 | 2.0 | 12.0 | 0.00 | 0.00 | 0.00 | 80 | 1011.5 |
| 20260507081905 | 60 | 162 | 1.0 | 12.0 | 0.00 | 0.00 | 0.00 | 80 | 1011.6 |
| 20260507081405 | 60 | 110 | 1.0 | 12.0 | 0.00 | 0.00 | 0.00 | 81 | 1011.5 |
| 20260507080905 | 59 | 120 | 2.0 | 8.0 | 0.00 | 0.00 | 0.00 | 82 | 1011.5 |
| 20260507080405 | 59 | 70 | 2.0 | 12.0 | 0.00 | 0.00 | 0.00 | 82 | 1011.4 |
| 20260507075905 | 59 | 133 | 1.0 | 8.0 | 0.00 | 0.00 | 0.00 | 82 | 1011.4 |
| 20260507075404 | 59 | 146 | 1.0 | 8.0 | 0.00 | 0.00 | 0.00 | 83 | 1011.3 |
| 20260507074905 | 58 | 84 | 1.0 | 9.0 | 0.00 | 0.00 | 0.00 | 84 | 1011.3 |
| 20260507074405 | 58 | 130 | 5.0 | 9.0 | 0.00 | 0.00 | 0.00 | 84 | 1011.2 |
| 20260507072905 | 58 | 44 | 1.0 | 9.0 | 0.00 | 0.00 | 0.00 | 85 | 1011.1 |
| 20260507072405 | 58 | 82 | 1.0 | 8.0 | 0.00 | 0.00 | 0.00 | 86 | 1011.0 |
| 20260507071905 | 57 | 158 | 1.0 | 8.0 | 0.00 | 0.00 | 0.00 | 86 | 1010.9 |
| 20260507071405 | 57 | 151 | 3.0 | 8.0 | 0.00 | 0.00 | 0.00 | 87 | 1010.8 |
| 20260507070905 | 57 | 128 | 3.0 | 8.0 | 0.00 | 0.00 | 0.00 | 88 | 1010.8 |
| 20260507070404 | 56 | 125 | 1.0 | 3.0 | 0.00 | 0.00 | 0.00 | 88 | 1010.8 |
| 20260507065905 | 56 | 125 | 0.0 | 0.0 | 0.00 | 0.00 | 0.00 | 89 | 1010.9 |
| 20260507064905 | 55 | 127 | 1.0 | 8.0 | 0.00 | 0.00 | 0.00 | 90 | 1010.8 |
| 20260507063904 | 55 | 161 | 0.0 | 1.0 | 0.00 | 0.00 | 0.00 | 91 | 1010.7 |
| 20260507063405 | 54 | 161 | 0.0 | 0.0 | 0.00 | 0.00 | 0.00 | 91 | 1010.7 |
| 20260507061905 | 54 | 111 | 0.0 | 0.0 | 0.00 | 0.00 | 0.00 | 91 | 1010.5 |
| 20260507061405 | 54 | 111 | 0.0 | 2.0 | 0.00 | 0.00 | 0.00 | 92 | 1010.4 |
| 20260507060905 | 54 | 111 | 0.0 | 0.0 | 0.00 | 0.00 | 0.00 | 92 | 1010.4 |
| 20260507060405 | 53 | 111 | 0.0 | 0.0 | 0.00 | 0.00 | 0.00 | 92 | 1010.3 |
| 20260507055905 | 53 | 111 | 0.0 | 6.0 | 0.00 | 0.00 | 0.00 | 91 | 1010.3 |
| 20260507054905 | 53 | 106 | 0.0 | 0.0 | 0.00 | 0.00 | 0.00 | 91 | 1010.2 |
| 20260507053905 | 53 | 106 | 0.0 | 0.0 | 0.00 | 0.00 | 0.00 | 91 | 1010.3 |
| 20260507052905 | 53 | 83 | 1.0 | 6.0 | 0.00 | 0.00 | 0.00 | 91 | 1010.3 |
| 20260507052407 | 53 | 77 | 1.0 | 6.0 | 0.00 | 0.00 | 0.00 | 91 | 1010.3 |
| 20260507051905 | 53 | 59 | 1.0 | 6.0 | 0.00 | 0.00 | 0.00 | 91 | 1010.2 |
| 20260507051405 | 53 | 82 | 2.0 | 8.0 | 0.00 | 0.00 | 0.00 | 91 | 1010.4 |
| 20260507050905 | 53 | 29 | 0.0 | 8.0 | 0.00 | 0.00 | 0.00 | 91 | 1010.4 |
| 20260507050405 | 53 | 75 | 2.0 | 7.0 | 0.00 | 0.00 | 0.00 | 91 | 1010.4 |
| 20260507045904 | 53 | 32 | 1.0 | 7.0 | 0.00 | 0.00 | 0.00 | 91 | 1010.4 |
| 20260507045404 | 53 | 69 | 3.0 | 8.0 | 0.00 | 0.00 | 0.00 | 91 | 1010.4 |
| 20260507044905 | 53 | 105 | 2.0 | 6.0 | 0.00 | 0.00 | 0.00 | 91 | 1010.5 |
| 20260507044405 | 53 | 54 | 2.0 | 6.0 | 0.00 | 0.00 | 0.00 | 91 | 1010.5 |
| 20260507043405 | 53 | 125 | 4.0 | 9.0 | 0.00 | 0.00 | 0.00 | 91 | 1010.4 |
| 20260507042904 | 53 | 96 | 2.0 | 9.0 | 0.00 | 0.00 | 0.00 | 91 | 1010.6 |
| 20260507042405 | 53 | 64 | 2.0 | 10.0 | 0.00 | 0.00 | 0.00 | 91 | 1010.5 |
| 20260507041905 | 53 | 110 | 2.0 | 6.0 | 0.00 | 0.00 | 0.00 | 91 | 1010.5 |
| 20260507041405 | 53 | 76 | 0.0 | 2.0 | 0.00 | 0.00 | 0.00 | 90 | 1010.6 |
| 20260507040905 | 53 | 99 | 2.0 | 7.0 | 0.00 | 0.00 | 0.00 | 90 | 1010.7 |
| 20260507040404 | 53 | 263 | 0.0 | 6.0 | 0.00 | 0.00 | 0.00 | 90 | 1010.7 |
| 20260507035905 | 53 | 96 | 1.0 | 6.0 | 0.00 | 0.00 | 0.00 | 90 | 1010.7 |
| 20260507035404 | 53 | 101 | 1.0 | 6.0 | 0.00 | 0.00 | 0.00 | 90 | 1010.8 |
| 20260507034405 | 54 | 18 | 0.0 | 6.0 | 0.00 | 0.00 | 0.00 | 90 | 1010.8 |
| 20260507033905 | 53 | 70 | 2.0 | 5.0 | 0.00 | 0.00 | 0.00 | 90 | 1010.9 |
| 20260507033404 | 54 | 49 | 1.0 | 5.0 | 0.00 | 0.00 | 0.00 | 89 | 1010.8 |
| 20260507032405 | 54 | 46 | 2.0 | 8.0 | 0.00 | 0.00 | 0.00 | 89 | 1010.9 |
| 20260507031905 | 54 | 34 | 1.0 | 9.0 | 0.00 | 0.00 | 0.00 | 89 | 1010.8 |
| 20260507031405 | 54 | 77 | 2.0 | 7.0 | 0.00 | 0.00 | 0.00 | 89 | 1010.8 |
| 20260507030905 | 54 | 89 | 2.0 | 7.0 | 0.00 | 0.00 | 0.00 | 89 | 1010.8 |
| 20260507030405 | 54 | 57 | 1.0 | 10.0 | 0.00 | 0.00 | 0.00 | 89 | 1010.9 |
| 20260507025905 | 54 | 122 | 2.0 | 9.0 | 0.00 | 0.00 | 0.00 | 89 | 1011.0 |
| 20260507025405 | 54 | 176 | 3.0 | 12.0 | 0.00 | 0.00 | 0.00 | 89 | 1010.8 |
| 20260507024904 | 54 | 142 | 3.0 | 9.0 | 0.00 | 0.00 | 0.00 | 88 | 1010.9 |
| 20260507024404 | 54 | 173 | 3.0 | 9.0 | 0.00 | 0.00 | 0.00 | 88 | 1010.8 |
| 20260507023904 | 54 | 147 | 3.0 | 10.0 | 0.00 | 0.00 | 0.00 | 88 | 1010.9 |
| 20260507023404 | 54 | 113 | 2.0 | 10.0 | 0.00 | 0.00 | 0.00 | 88 | 1011.0 |
| 20260507022905 | 54 | 173 | 4.0 | 12.0 | 0.00 | 0.00 | 0.00 | 88 | 1011.0 |
| 20260507022404 | 54 | 123 | 3.0 | 12.0 | 0.00 | 0.00 | 0.00 | 88 | 1010.9 |
| 20260507021905 | 54 | 102 | 2.0 | 12.0 | 0.00 | 0.00 | 0.00 | 88 | 1010.9 |
| 20260507020904 | 54 | 100 | 2.0 | 9.0 | 0.00 | 0.00 | 0.00 | 88 | 1010.9 |
| 20260507020405 | 54 | 219 | 1.0 | 7.0 | 0.00 | 0.00 | 0.00 | 87 | 1010.9 |
| 20260507015904 | 54 | 91 | 5.0 | 13.0 | 0.00 | 0.00 | 0.00 | 87 | 1011.1 |
| 20260507015405 | 54 | 147 | 2.0 | 13.0 | 0.00 | 0.00 | 0.00 | 87 | 1011.1 |
| 20260507014904 | 54 | 42 | 3.0 | 9.0 | 0.00 | 0.00 | 0.00 | 87 | 1011.2 |
| 20260507014404 | 54 | 128 | 2.0 | 8.0 | 0.00 | 0.00 | 0.00 | 87 | 1011.2 |
| 20260507013904 | 54 | 77 | 1.0 | 8.0 | 0.00 | 0.00 | 0.00 | 87 | 1011.2 |
| 20260507013405 | 54 | 51 | 1.0 | 8.0 | 0.00 | 0.00 | 0.00 | 87 | 1011.2 |
| 20260507012904 | 54 | 126 | 3.0 | 13.0 | 0.00 | 0.00 | 0.00 | 87 | 1011.2 |
| 20260507012405 | 54 | 107 | 2.0 | 9.0 | 0.00 | 0.00 | 0.00 | 87 | 1011.3 |
| 20260507011905 | 54 | 115 | 2.0 | 9.0 | 0.00 | 0.00 | 0.00 | 87 | 1011.4 |
| 20260507011405 | 54 | 138 | 2.0 | 16.0 | 0.00 | 0.00 | 0.00 | 87 | 1011.5 |
| 20260507010904 | 54 | 129 | 2.0 | 8.0 | 0.00 | 0.00 | 0.00 | 87 | 1011.5 |
| 20260507010404 | 54 | 130 | 1.0 | 5.0 | 0.00 | 0.00 | 0.00 | 87 | 1011.5 |
| 20260507005904 | 54 | 143 | 1.0 | 6.0 | 0.00 | 0.00 | 0.00 | 87 | 1011.6 |
| 20260507005404 | 54 | 137 | 7.0 | 13.0 | 0.00 | 0.00 | 0.00 | 87 | 1011.6 |
| 20260507004905 | 54 | 146 | 4.0 | 10.0 | 0.00 | 0.00 | 0.00 | 86 | 1011.6 |
| 20260507004405 | 54 | 129 | 3.0 | 9.0 | 0.00 | 0.00 | 0.00 | 86 | 1011.7 |
| 20260507003904 | 54 | 136 | 6.0 | 14.0 | 0.00 | 0.00 | 0.00 | 86 | 1011.8 |
| 20260507003405 | 54 | 144 | 5.0 | 14.0 | 0.00 | 0.00 | 0.00 | 86 | 1011.8 |
| 20260507002904 | 54 | 104 | 4.0 | 12.0 | 0.00 | 0.00 | 0.00 | 86 | 1011.7 |
| 20260507002404 | 55 | 139 | 5.0 | 14.0 | 0.00 | 0.00 | 0.00 | 85 | 1011.8 |
| 20260507001904 | 55 | 64 | 1.0 | 14.0 | 0.00 | 0.00 | 0.00 | 85 | 1011.9 |
| 20260507001405 | 55 | 93 | 1.0 | 10.0 | 0.00 | 0.00 | 0.00 | 85 | 1011.9 |
| 20260507000904 | 55 | 143 | 5.0 | 12.0 | 0.00 | 0.00 | 0.00 | 85 | 1011.9 |
| 20260507000406 | 55 | 155 | 4.0 | 10.0 | 0.00 | 0.00 | 0.00 | 84 | 1011.9 |
| 20260506234905 | 55 | 185 | 1.0 | 8.0 | 0.00 | 0.00 | 0.00 | 84 | 1011.8 |
| 20260506233405 | 55 | 157 | 5.0 | 12.0 | 0.00 | 0.00 | 0.00 | 84 | 1011.8 |
| 20260506232905 | 55 | 122 | 0.0 | 8.0 | 0.00 | 0.00 | 0.00 | 83 | 1011.7 |
| 20260506232404 | 55 | 96 | 1.0 | 7.0 | 0.00 | 0.00 | 0.00 | 83 | 1011.7 |
| 20260506231905 | 55 | 103 | 1.0 | 6.0 | 0.00 | 0.00 | 0.00 | 83 | 1011.7 |
| 20260506230905 | 55 | 104 | 5.0 | 12.0 | 0.00 | 0.00 | 0.00 | 82 | 1011.7 |
| 20260506230404 | 55 | 126 | 4.0 | 9.0 | 0.00 | 0.00 | 0.00 | 82 | 1011.7 |
| 20260506225905 | 55 | 136 | 0.0 | 7.0 | 0.00 | 0.00 | 0.00 | 82 | 1011.8 |
| 20260506225405 | 55 | 108 | 4.0 | 12.0 | 0.00 | 0.00 | 0.00 | 82 | 1011.8 |
| 20260506224404 | 56 | 110 | 3.0 | 9.0 | 0.00 | 0.00 | 0.00 | 81 | 1011.9 |
| 20260506223904 | 56 | 87 | 2.0 | 6.0 | 0.00 | 0.00 | 0.00 | 81 | 1011.9 |
| 20260506223407 | 56 | 111 | 5.0 | 12.0 | 0.00 | 0.00 | 0.00 | 81 | 1012.0 |
| 20260506222405 | 56 | 94 | 3.0 | 12.0 | 0.00 | 0.00 | 0.00 | 80 | 1012.0 |
| 20260506221904 | 56 | 167 | 3.0 | 9.0 | 0.00 | 0.00 | 0.00 | 80 | 1012.0 |
| 20260506221404 | 56 | 114 | 3.0 | 9.0 | 0.00 | 0.00 | 0.00 | 79 | 1012.1 |
| 20260506220904 | 57 | 132 | 3.0 | 9.0 | 0.00 | 0.00 | 0.00 | 79 | 1012.1 |
| 20260506220405 | 57 | 104 | 4.0 | 13.0 | 0.00 | 0.00 | 0.00 | 79 | 1012.2 |
| 20260506215905 | 57 | 132 | 5.0 | 12.0 | 0.00 | 0.00 | 0.00 | 78 | 1012.2 |
| 20260506214905 | 57 | 95 | 2.0 | 7.0 | 0.00 | 0.00 | 0.00 | 77 | 1012.1 |
| 20260506214404 | 57 | 113 | 2.0 | 9.0 | 0.00 | 0.00 | 0.00 | 77 | 1012.1 |
| 20260506213904 | 57 | 85 | 3.0 | 12.0 | 0.00 | 0.00 | 0.00 | 77 | 1012.0 |
| 20260506212404 | 58 | 54 | 2.0 | 8.0 | 0.00 | 0.00 | 0.00 | 75 | 1012.0 |
| 20260506211904 | 58 | 129 | 5.0 | 10.0 | 0.00 | 0.00 | 0.00 | 75 | 1012.0 |
| 20260506211404 | 58 | 94 | 3.0 | 12.0 | 0.00 | 0.00 | 0.00 | 74 | 1012.0 |
| 20260506210904 | 58 | 69 | 5.0 | 12.0 | 0.00 | 0.00 | 0.00 | 74 | 1012.0 |
| 20260506210405 | 58 | 68 | 5.0 | 9.0 | 0.00 | 0.00 | 0.00 | 73 | 1011.9 |
| 20260506205904 | 58 | 77 | 4.0 | 7.0 | 0.00 | 0.00 | 0.00 | 73 | 1011.9 |
| 20260506205404 | 58 | 56 | 4.0 | 10.0 | 0.00 | 0.00 | 0.00 | 72 | 1011.8 |
| 20260506203904 | 59 | 46 | 2.0 | 7.0 | 0.00 | 0.00 | 0.00 | 71 | 1011.7 |
| 20260506203404 | 59 | 65 | 5.0 | 13.0 | 0.00 | 0.00 | 0.00 | 70 | 1011.6 |
| 20260506202405 | 60 | 71 | 4.0 | 9.0 | 0.00 | 0.00 | 0.00 | 69 | 1011.6 |
| 20260506201904 | 60 | 75 | 3.0 | 9.0 | 0.00 | 0.00 | 0.00 | 68 | 1011.6 |